This demonstration page uses our WeatherBlox Daily Observations layout. Learn more.

Left ArrowRight Arrow

Hourly Observations for May 26, 2020

Temp ( °F °C ) Dew Point ( °F °C ) Humidity (%) Winds ( mph kmh ) Pressure ( in mb ) Visibility ( mi km ) Precip ( " mm )
12:15 am 00:15 Clear 55 12.5 50 10 85 85 N 6 9 29.98 1015 10 16.0934 0 0
12:35 am 00:35 Clear 53 11.6 49 9.4 86 86 NW 5 7 29.99 1016 10 16.0934 0 0
12:55 am 00:55 Clear 51 10.7 49 9.4 92 92 NW 6 9 30 1016 10 16.0934 0 0
1:15 am 01:15 Clear 52 11 49 9.5 91 91 NNW 6 9 29.98 1015 10 16.0934 0 0
1:35 am 01:35 Clear 51 10.6 48 9.1 91 91 NW 5 7 29.99 1015 10 16.0934 0 0
1:55 am 01:55 Clear 51 10.5 48 9.1 91 91 NW 7 11 29.98 1015 10 16.0934 0 0
2:15 am 02:15 Clear 51 10.5 48 9 91 91 NW 6 9 29.98 1015 10 16.0934 0 0
2:35 am 02:35 Clear 51 10.5 48 9 91 91 NNW 7 11 29.97 1015 10 16.0934 0 0
2:55 am 02:55 Clear 50 10.2 48 8.8 91 91 NW 6 9 29.97 1015 10 16.0934 0 0
3:15 am 03:15 Clear 50 10.1 47 8.6 91 91 NW 6 9 29.97 1015 10 16.0934 0 0
3:35 am 03:35 Clear 50 9.8 47 8.5 92 92 NW 7 11 29.96 1015 10 16.0934 0 0
3:55 am 03:55 Clear 49 9.7 47 8.5 92 92 NW 6 9 29.97 1015 10 16.0934 0 0
4:15 am 04:15 Clear 49 9.7 47 8.5 92 92 NW 8 13 29.97 1015 10 16.0934 0 0
4:35 am 04:35 Clear 49 9.6 47 8.3 92 92 NW 7 11 29.96 1014 10 16.0934 0 0
4:55 am 04:55 Clear 49 9.5 47 8.3 92 92 NW 8 13 29.96 1014 10 16.0934 0 0
5:15 am 05:15 Clear 49 9.5 47 8.3 92 92 NW 8 13 29.96 1014 10 16.0934 0 0
5:35 am 05:35 Clear 49 9.3 46 8 92 92 NW 8 13 29.97 1015 10 16.0934 0 0
5:55 am 05:55 Clear 49 9.4 46 8 91 91 NW 8 13 29.96 1014 10 16.0934 0 0
6:15 am 06:15 Sunny 49 9.4 46 8 91 91 NW 8 13 29.96 1014 10 16.0934 0 0
6:35 am 06:35 Sunny 49 9.3 46 8 92 92 NW 8 13 29.96 1015 10 16.0934 0 0
6:55 am 06:55 Sunny 49 9.5 47 8.2 92 92 NW 8 13 29.97 1015 10 16.0934 0 0
7:15 am 07:15 Sunny 50 9.8 47 8.4 91 91 NW 8 13 29.96 1015 10 16.0934 0 0
7:35 am 07:35 Sunny 50 10.2 48 8.7 91 91 NW 9 15 29.97 1015 10 16.0934 0 0
7:55 am 07:55 Sunny 51 10.5 48 9 91 91 NW 7 11 29.96 1015 10 16.0934 0 0
8:15 am 08:15 Sunny 52 11.1 49 9.3 89 89 NW 7 11 29.95 1014 10 16.0934 0 0
8:35 am 08:35 Sunny 53 11.8 50 9.8 88 88 NW 8 13 29.95 1014 10 16.0934 0 0
8:55 am 08:55 Sunny 54 12.3 50 9.9 85 85 NW 8 13 29.95 1014 10 16.0934 0 0
9:15 am 09:15 Sunny 55 12.9 51 10.3 84 84 NW 10 17 29.94 1014 10 16.0934 0 0
9:35 am 09:35 Sunny 56 13.6 51 10.5 82 82 NW 10 17 29.93 1014 10 16.0934 0 0
9:55 am 09:55 Sunny 59 14.9 51 10.5 75 75 NNW 12 19 29.92 1013 10 16.0934 0 0
10:15 am 10:15 Sunny 60 15.5 52 11.2 76 76 NNW 10 17 29.93 1013 10 16.0934 0 0
10:35 am 10:35 Sunny 59 15.2 52 10.9 76 76 NNW 12 19 29.92 1013 10 16.0934 0 0
10:55 am 10:55 Sunny 61 16.1 52 11.1 72 72 NW 9 15 29.89 1012 10 16.0934 0 0
11:15 am 11:15 Sunny 62 16.7 52 11.2 70 70 NNW 8 13 29.87 1012 10 16.0934 0 0
11:35 am 11:35 Sunny 64 17.5 54 12.1 71 71 NNW 10 17 29.87 1011 10 16.0934 0 0
11:55 am 11:55 Sunny 64 17.9 54 12.2 69 69 NNW 10 17 29.85 1011 10 16.0934 0 0
12:15 pm 12:15 Sunny 65 18.6 52 11 61 61 N 10 17 29.85 1011 10 16.0934 0 0
12:35 pm 12:35 Sunny 66 19.1 50 10 56 56 N 17 28 29.84 1011 10 16.0934 0 0
12:55 pm 12:55 Sunny 67 19.7 51 10.4 55 55 N 15 24 29.84 1010 10 16.0934 0 0
1:15 pm 13:15 Sunny 67 19.3 50 10 55 55 N 12 19 29.84 1011 10 16.0934 0 0
1:35 pm 13:35 Sunny 68 20.1 49 9.4 50 50 N 15 24 29.83 1010 10 16.0934 0 0
1:55 pm 13:55 Partly Cloudy 70 20.9 51 10.4 51 51 N 15 24 29.82 1010 10 16.0934 0 0
2:15 pm 14:15 Partly Cloudy 70 21 50 9.9 49 49 N 17 28 29.82 1010 10 16.0934 0 0
2:35 pm 14:35 Sunny 71 21.5 50 10 48 48 N 15 24 29.81 1009 10 16.0934 0 0
2:55 pm 14:55 Partly Cloudy 69 20.8 48 8.9 47 47 N 12 19 29.82 1010 10 16.0934 0 0
3:15 pm 15:15 Partly Cloudy 69 20.7 48 8.7 46 46 N 12 19 29.8 1009 10 16.0934 0 0
3:35 pm 15:35 Partly Cloudy 71 21.6 49 9.5 46 46 N 15 24 29.8 1009 10 16.0934 0 0
3:55 pm 15:55 Mostly Cloudy 69 20.8 48 8.7 46 46 N 10 17 29.8 1009 10 16.0934 0 0
4:15 pm 16:15 Partly Cloudy 71 21.8 48 8.8 44 44 N 14 22 29.79 1009 10 16.0934 0 0
4:35 pm 16:35 Partly Cloudy 72 22.2 48 9.1 43 43 NNW 12 19 29.79 1009 10 16.0934 0 0
4:55 pm 16:55 Partly Cloudy 72 22.3 47 8.5 41 41 N 14 22 29.78 1008 10 16.0934 0 0
5:15 pm 17:15 Sunny 73 22.5 47 8.5 41 41 N 14 22 29.78 1008 10 16.0934 0 0
5:35 pm 17:35 Sunny 73 22.5 47 8.5 41 41 N 12 19 29.78 1008 10 16.0934 0 0
5:55 pm 17:55 Partly Cloudy 72 22.4 45 7.2 38 38 NNW 9 15 29.78 1008 10 16.0934 0 0
6:15 pm 18:15 Partly Cloudy 72 22.4 46 8 40 40 NNW 10 17 29.79 1009 10 16.0934 0 0
6:35 pm 18:35 Sunny 72 22.3 46 7.6 39 39 N 12 19 29.79 1009 10 16.0934 0 0
6:55 pm 18:55 Sunny 72 22.2 48 8.8 42 42 N 13 20 29.78 1008 10 16.0934 0 0
7:15 pm 19:15 Sunny 71 21.9 46 7.7 40 40 N 7 11 29.79 1009 10 16.0934 0 0
7:35 pm 19:35 Sunny 71 21.4 48 9 45 45 N 8 13 29.8 1009 10 16.0934 0 0
7:55 pm 19:55 Sunny 69 20.6 51 10.6 53 53 N 6 9 29.8 1009 10 16.0934 0 0
8:15 pm 20:15 Sunny 67 19.4 53 11.7 61 61 NE 6 9 29.82 1010 10 16.0934 0 0
8:35 pm 20:35 Sunny 65 18.5 54 12 66 66 NNE 5 7 29.83 1010 10 16.0934 0 0
8:55 pm 20:55 Sunny 64 17.5 53 11.8 69 69 NE 5 7 29.84 1010 10 16.0934 0 0
9:15 pm 21:15 Clear 61 16.1 53 11.6 75 75 NE 5 7 29.86 1011 10 16.0934 0 0
9:35 pm 21:35 Clear 61 16.1 52 11.1 72 72 ENE 3 6 29.86 1011 10 16.0934 0 0
9:55 pm 21:55 Clear 61 16 52 11 72 72 ENE 3 6 29.86 1011 10 16.0934 0 0
10:15 pm 22:15 Clear 61 15.9 52 11 73 73 NE 3 6 29.87 1012 10 16.0934 0 0
10:35 pm 22:35 Clear 60 15.8 51 10.7 72 72 Calm 29.88 1012 10 16.0934 0 0
10:55 pm 22:55 Clear 59 15.1 51 10.6 75 75 Calm 29.89 1012 10 16.0934 0 0
11:15 pm 23:15 Clear 58 14.5 53 11.8 84 84 Calm 29.9 1013 10 16.0934 0 0
11:35 pm 23:35 Clear 58 14.2 53 11.4 83 83 Calm 29.91 1013 10 16.0934 0 0
11:55 pm 23:55 Clear 58 14.5 52 11.2 81 81 Calm 29.9 1013 10 16.0934 0 0

Powered by AerisWeather